This demonstration page uses our WeatherBlox Daily Observations layout. Learn more.

Left ArrowRight Arrow

44.8408, -93.29828

Hourly Observations for February 12, 2019

Temp ( °F °C ) Dew Point ( °F °C ) Humidity (%) Winds ( mph kmh ) Pressure ( in mb ) Visibility ( mi km ) Precip ( " mm )
12:05 am 00:05 Cloudy with Light Snow 23 -5 22 -5.6 96 96 NE 7 11 30.03 1017 3 5 0.00 0.03
12:12 am 00:12 Cloudy with Light Snow 23 -5 22 -5.6 96 96 NE 9 15 30.02 1017 2 3 0.00 0.03
12:22 am 00:22 Cloudy with Light Snow 23 -5 22 -5.6 96 96 NE 8 13 30.02 1017 1 2 0.01 0.25
12:40 am 00:40 Cloudy with Light Snow 23 -5 22 -5.6 96 96 NE 7 11 30.01 1016 2 3 0.02 0.51
12:53 am 00:53 Cloudy with Light Snow 23 -5 22 -5.6 96 96 NE 7 11 29.98 1015 2 3 0.02 0.51
1:06 am 01:06 Cloudy with Light Snow 23 -5 22 -5.6 96 96 ENE 9 15 30.00 1016 2 3 0.00 0.03
1:53 am 01:53 Cloudy with Light Snow 23 -5 22 -5.6 96 96 ENE 9 15 29.95 1014 1 2 0.02 0.51
2:15 am 02:15 Cloudy with Light Snow 23 -5 23 -5 100 100 NE 8 13 29.97 1015 1 2 0.00 0.03
2:39 am 02:39 Mostly Cloudy with Light Snow 23 -5 22 -5.6 96 96 NE 8 13 29.96 1015 1 1 0.02 0.51
2:53 am 02:53 Mostly Cloudy with Light Snow 23 -5 23 -5 100 100 NNE 7 11 29.93 1013 1 2 0.03 0.76
3:53 am 03:53 Mostly Cloudy with Light Snow 23 -5 23 -5 100 100 N 7 11 29.91 1013 1 2 0.04 1.02
4:53 am 04:53 Mostly Cloudy with Light Snow 22 -5.6 22 -5.6 100 100 N 9 15 29.90 1013 1 2 0.04 1.02
5:18 am 05:18 Mostly Cloudy with Light Snow 22 -5.6 22 -5.6 100 100 N 8 13 29.93 1013 1 2 0.02 0.51
5:41 am 05:41 Cloudy with Light Snow 22 -5.6 22 -5.6 100 100 N 9 15 29.92 1013 1 2 0.03 0.76
5:53 am 05:53 Cloudy with Light Snow 22 -5.6 22 -5.6 100 100 N 9 15 29.89 1012 1 2 0.03 0.76
6:02 am 06:02 Cloudy with Light Snow 22 -5.6 22 -5.6 100 100 N 8 13 29.92 1013 2 2 0.01 0.25
6:46 am 06:46 Cloudy with Light Snow 22 -5.6 21 -6.1 96 96 N 10 17 29.91 1013 1 2 0.02 0.51
6:53 am 06:53 Mostly Cloudy with Light Snow 22 -5.6 21 -6.1 96 96 N 12 19 29.88 1012 1 2 0.02 0.51
7:13 am 07:13 Cloudy with Light Snow 22 -5.6 21 -6.1 96 96 N 10 17 29.91 1013 1 2 0.01 0.25
7:26 am 07:26 Cloudy with Light Snow 22 -5.6 21 -6.1 96 96 N 13 20 29.90 1012 2 3 0.01 0.25
7:42 am 07:42 Cloudy with Light Snow 21 -6.1 20 -6.7 96 96 N 12 19 29.90 1012 2 3 0.01 0.25
7:53 am 07:53 Cloudy with Light Snow 21 -6.1 20 -6.7 96 96 N 12 19 29.88 1012 2 3 0.01 0.25
8:53 am 08:53 Cloudy with Light Snow 21 -6.1 20 -6.7 96 96 N 8 13 29.88 1012 2 3 0.01 0.25
9:08 am 09:08 Cloudy with Light Snow 21 -6.1 19 -7.2 92 92 N 12 19 29.90 1012 3 4 0.00 0.03
9:20 am 09:20 Cloudy with Light Snow 20 -6.7 19 -7.2 96 96 N 13 20 29.90 1013 2 2 0.00 0.03
9:25 am 09:25 Cloudy with Light Snow 20 -6.7 19 -7.2 96 96 N 10 17 29.90 1013 1 2 0.00 0.03
9:31 am 09:31 Cloudy with Light Snow 20 -6.7 19 -7.2 96 96 N 12 19 29.90 1013 2 3 0.00 0.03
9:53 am 09:53 Cloudy with Light Snow 21 -6.1 19 -7.2 92 92 N 10 17 29.87 1011 2 3 0.00 0.03
10:05 am 10:05 Cloudy with Light Snow 21 -6.1 19 -7.2 92 92 N 10 17 29.90 1012 2 3 0.01 0.25
10:20 am 10:20 Cloudy with Light Snow 21 -6.1 19 -7.2 92 92 N 10 17 29.89 1012 2 3 0.01 0.25
10:53 am 10:53 Cloudy with Light Snow 21 -6.1 19 -7.2 92 92 N 12 19 29.85 1011 2 3 0.01 0.25
11:53 am 11:53 Cloudy with Light Snow 22 -5.6 19 -7.2 89 89 NW 16 26 29.84 1010 2 3 0.01 0.25
12:20 pm 12:20 Cloudy with Light Snow 23 -5 19 -7.2 85 85 NW 15 24 29.85 1011 3 5 0.01 0.25
12:53 pm 12:53 Cloudy with Light Snow 23 -5 20 -6.7 88 88 NW 17 28 29.82 1010 3 4 0.01 0.25
1:35 pm 13:35 Cloudy with Light Snow 24 -4.4 20 -6.7 84 84 NW 16 26 29.83 1010 3 5 0.01 0.25
1:53 pm 13:53 Cloudy with Light Snow 23 -5 20 -6.7 88 88 NW 15 24 29.80 1009 3 5 0.01 0.25
2:53 pm 14:53 Cloudy with Light Snow 23 -5 20 -6.7 88 88 NW 18 30 29.80 1009 3 5 0.01 0.25
3:53 pm 15:53 Cloudy with Light Snow 23 -5 19 -7.2 85 85 NW 18 30 29.82 1010 6 10 0.00 0.03
4:26 pm 16:26 Cloudy with Light Snow 23 -5 19 -7.2 85 85 NW 17 28 29.86 1011 8 13 0.00 0.03
4:53 pm 16:53 Cloudy 23 -5 18 -7.8 81 81 NW 20 31 29.85 1011 10 16 0.00 0.03
5:32 pm 17:32 Cloudy 23 -5 18 -7.8 81 81 NW 16 26 29.88 1012 10 16 0.00 0.03
5:53 pm 17:53 Cloudy 23 -5 17 -8.3 78 78 NW 20 31 29.86 1011 10 16 0.00 0.03
6:01 pm 18:01 Cloudy 22 -5.6 17 -8.3 82 82 NW 18 30 29.90 1012 10 16 0.00 0.00
6:53 pm 18:53 Windy with Snow Likely 22 -5.6 17 -8.3 82 82 NW 20 31 29.89 1012 7 11 0.00 0.03
7:53 pm 19:53 Mostly Cloudy with Light Snow 19 -7.2 16 -8.9 88 88 WNW 15 24 29.90 1013 9 14 0.00 0.03
8:04 pm 20:04 Mostly Cloudy with Light Snow 18 -7.8 15 -9.4 88 88 WNW 14 22 29.93 1014 8 13 0.00 0.03
8:53 pm 20:53 Windy with Snow Likely 16 -8.9 13 -10.6 88 88 WNW 20 31 29.93 1014 9 14 0.00 0.03
9:53 pm 21:53 Cloudy with Light Snow 13 -10.6 10 -12.2 88 88 WNW 15 24 29.95 1014 7 11 0.00 0.03
10:07 pm 22:07 Mostly Cloudy 12 -11.1 10 -12.2 92 92 WNW 14 22 30.00 1016 7 11 0.00 0.03
10:53 pm 22:53 Partly Cloudy 11 -11.7 8 -13.3 88 88 WNW 14 22 29.97 1015 10 16 0.00 0.03
11:53 pm 23:53 Mostly Clear 11 -11.7 9 -12.8 92 92 WNW 13 20 29.97 1015 10 16 0.00 0.00

Powered by AerisWeather